When you browse on this site, cookies collect data to enhance your experience and personalize the content and advertising you see.
Visit our Privacy Policy to learn more. By continuing to use the site, you agree to this use of cookies and data.
  • En España
  • Lista de países
  • Para 7 días
  • Temperatura del agua
  • Mapa Satelital
  • El tiempo en el mapa
  • Informadores
  • user-avatar
    Iniciar sesión

    Tiempo cada hora Dublin

    Hoy, 21 Enero, Lunes

    Tiempo Temperatura Precipitaciones Viento Presión Humedad
    00:00 -1°C° 0 mm 2 mps 753 mmHg 90%
    01:00 -1°C° 0 mm 2 mps 752 mmHg 90%
    02:00 -1°C° 0 mm 2 mps 752 mmHg 90%
    03:00 -1°C° 0 mm 2 mps 752 mmHg 90%
    04:00 -1°C° 0 mm 2 mps 751 mmHg 89%
    05:00 -1°C° 0 mm 2 mps 751 mmHg 88%
    06:00 -1°C° 0 mm 2 mps 750 mmHg 87%
    07:00 -1°C° 0 mm 3 mps 750 mmHg 86%
    08:00 0°C° 0 mm 3 mps 749 mmHg 85%
    09:00 0°C° 0 mm 3 mps 749 mmHg 84%
    10:00 0°C° 0 mm 4 mps 748 mmHg 80%
    11:00 +1°C° 0 mm 5 mps 747 mmHg 77%
    12:00 +2°C° 0 mm 6 mps 746 mmHg 73%
    13:00 +2°C° 0.2 mm 7 mps 744 mmHg 76%
    14:00 +2°C° 0.2 mm 8 mps 743 mmHg 79%
    15:00 +2°C° 0.2 mm 9 mps 741 mmHg 81%
    16:00 +2°C° 0.9 mm 9 mps 740 mmHg 84%
    17:00 +2°C° 0.9 mm 9 mps 739 mmHg 86%
    18:00 +1°C° 0.9 mm 10 mps 738 mmHg 89%
    19:00 0°C° 0.2 mm 9 mps 738 mmHg 85%
    20:00 -1°C° 0.2 mm 9 mps 737 mmHg 82%
    21:00 -2°C° 0.2 mm 8 mps 737 mmHg 78%
    22:00 -2°C° 0 mm 8 mps 737 mmHg 80%
    23:00 -3°C° 0 mm 7 mps 738 mmHg 81%

    Mañana, 22 Enero, Martes

    Tiempo Temperatura Precipitaciones Viento Presión Humedad
    00:00 -3°C° 0 mm 7 mps 738 mmHg 83%
    01:00 -3°C° 0 mm 7 mps 737 mmHg 83%
    02:00 -3°C° 0 mm 6 mps 737 mmHg 83%
    03:00 -3°C° 0 mm 6 mps 737 mmHg 84%
    04:00 -3°C° 0.1 mm 6 mps 736 mmHg 85%
    05:00 -3°C° 0.1 mm 6 mps 736 mmHg 87%
    06:00 -2°C° 0.1 mm 6 mps 735 mmHg 89%
    07:00 -2°C° 0.1 mm 6 mps 735 mmHg 87%
    08:00 -2°C° 0.1 mm 6 mps 735 mmHg 85%
    09:00 -2°C° 0.1 mm 7 mps 735 mmHg 83%
    10:00 -2°C° 0 mm 7 mps 735 mmHg 80%
    11:00 -1°C° 0 mm 7 mps 735 mmHg 77%
    12:00 -1°C° 0 mm 7 mps 735 mmHg 74%
    13:00 -1°C° 0.1 mm 7 mps 735 mmHg 75%
    14:00 -1°C° 0.1 mm 6 mps 735 mmHg 75%
    15:00 -1°C° 0.1 mm 6 mps 735 mmHg 76%
    16:00 -2°C° 0 mm 6 mps 735 mmHg 79%
    17:00 -2°C° 0 mm 5 mps 735 mmHg 81%
    18:00 -3°C° 0 mm 4 mps 735 mmHg 84%
    19:00 -3°C° 0 mm 4 mps 735 mmHg 86%
    20:00 -3°C° 0 mm 4 mps 735 mmHg 88%
    21:00 -3°C° 0 mm 4 mps 736 mmHg 90%
    22:00 -3°C° 0 mm 4 mps 736 mmHg 90%
    23:00 -4°C° 0 mm 4 mps 736 mmHg 91%

    Pasado mañana, 23 Enero, Miércoles

    Tiempo Temperatura Precipitaciones Viento Presión Humedad
    00:00 -4°C° 0 mm 4 mps 736 mmHg 91%
    01:00 -3°C° 0 mm 4 mps 736 mmHg 91%
    02:00 -3°C° 0 mm 4 mps 737 mmHg 90%
    03:00 -3°C° 0 mm 4 mps 737 mmHg 90%
    04:00 -3°C° 0 mm 4 mps 737 mmHg 91%
    05:00 -2°C° 0 mm 4 mps 737 mmHg 92%
    06:00 -1°C° 0 mm 3 mps 737 mmHg 93%
    07:00 -1°C° 0 mm 3 mps 738 mmHg 93%
    08:00 -1°C° 0 mm 3 mps 738 mmHg 94%
    09:00 -1°C° 0 mm 3 mps 739 mmHg 94%
    10:00 0°C° 0 mm 3 mps 739 mmHg 91%
    11:00 +1°C° 0 mm 3 mps 740 mmHg 87%
    12:00 +2°C° 0 mm 3 mps 740 mmHg 84%
    13:00 +3°C° 0 mm 3 mps 740 mmHg 84%
    14:00 +3°C° 0 mm 3 mps 741 mmHg 84%
    15:00 +3°C° 0 mm 3 mps 741 mmHg 85%
    16:00 +3°C° 0 mm 3 mps 741 mmHg 88%
    17:00 +2°C° 0 mm 3 mps 741 mmHg 92%
    18:00 +1°C° 0 mm 3 mps 742 mmHg 95%
    19:00 +2°C° 0 mm 2 mps 742 mmHg 95%
    20:00 +2°C° 0 mm 2 mps 742 mmHg 95%
    21:00 +1°C° 0 mm 2 mps 743 mmHg 96%
    22:00 +2°C° 0 mm 2 mps 743 mmHg 94%
    23:00 +2°C° 0 mm 2 mps 743 mmHg 93%

    24 Enero, Jueves

    Tiempo Temperatura Precipitaciones Viento Presión Humedad
    00:00 +2°C° 0 mm 2 mps 743 mmHg 91%
    01:00 +2°C° 0.1 mm 2 mps 743 mmHg 91%
    02:00 +2°C° 0.1 mm 3 mps 743 mmHg 91%
    03:00 +2°C° 0.1 mm 3 mps 743 mmHg 90%
    04:00 +3°C° 0.5 mm 3 mps 743 mmHg 92%
    05:00 +3°C° 0.5 mm 4 mps 743 mmHg 94%
    06:00 +4°C° 0.5 mm 4 mps 742 mmHg 96%
    07:00 +4°C° 0.5 mm 4 mps 743 mmHg 96%
    08:00 +5°C° 0.5 mm 3 mps 743 mmHg 97%
    09:00 +7°C° 0.5 mm 3 mps 743 mmHg 97%
    10:00 +7°C° 0.1 mm 4 mps 743 mmHg 96%
    11:00 +7°C° 0.1 mm 5 mps 744 mmHg 95%
    12:00 +8°C° 0.1 mm 6 mps 744 mmHg 93%
    13:00 +8°C° 0 mm 6 mps 744 mmHg 92%
    14:00 +8°C° 0 mm 6 mps 744 mmHg 91%
    15:00 +7°C° 0 mm 6 mps 744 mmHg 90%
    16:00 +7°C° 0 mm 6 mps 744 mmHg 91%
    17:00 +7°C° 0 mm 6 mps 745 mmHg 92%
    18:00 +7°C° 0 mm 6 mps 745 mmHg 93%
    19:00 +7°C° 0 mm 6 mps 745 mmHg 94%
    20:00 +7°C° 0 mm 6 mps 746 mmHg 94%
    21:00 +7°C° 0 mm 6 mps 746 mmHg 94%
    22:00 +5°C° 0 mm 6 mps 746 mmHg 94%
    23:00 +5°C° 0 mm 6 mps 746 mmHg 95%

    25 Enero, Viernes

    Tiempo Temperatura Precipitaciones Viento Presión Humedad
    00:00 +6°C° 0 mm 5 mps 746 mmHg 95%
    01:00 +6°C° 0 mm 5 mps 746 mmHg 95%
    02:00 +6°C° 0 mm 5 mps 745 mmHg 96%
    03:00 +6°C° 0 mm 4 mps 745 mmHg 96%
    04:00 +6°C° 0 mm 5 mps 745 mmHg 95%
    05:00 +6°C° 0 mm 5 mps 745 mmHg 94%
    06:00 +6°C° 0 mm 5 mps 745 mmHg 93%
    07:00 +5°C° 0 mm 5 mps 745 mmHg 93%
    08:00 +4°C° 0 mm 6 mps 745 mmHg 93%
    09:00 +4°C° 0 mm 6 mps 745 mmHg 93%
    10:00 +5°C° 0 mm 6 mps 745 mmHg 90%
    11:00 +6°C° 0 mm 7 mps 745 mmHg 87%
    12:00 +8°C° 0 mm 7 mps 745 mmHg 84%
    13:00 +8°C° 0 mm 7 mps 744 mmHg 86%
    14:00 +8°C° 0 mm 6 mps 744 mmHg 88%
    15:00 +8°C° 0 mm 6 mps 744 mmHg 90%
    16:00 +8°C° 0.1 mm 5 mps 744 mmHg 92%
    17:00 +7°C° 0.1 mm 4 mps 744 mmHg 94%
    18:00 +8°C° 0.1 mm 2 mps 743 mmHg 96%
    19:00 +8°C° 0.9 mm 2 mps 743 mmHg 96%
    20:00 +7°C° 0.9 mm 2 mps 743 mmHg 95%
    21:00 +8°C° 0.9 mm 1 mps 742 mmHg 95%
    22:00 +7°C° 0.3 mm 2 mps 742 mmHg 96%
    23:00 +7°C° 0.3 mm 2 mps 741 mmHg 96%

    26 Enero, Sábado

    Tiempo Temperatura Precipitaciones Viento Presión Humedad
    00:00 +8°C° 0.3 mm 3 mps 740 mmHg 96%
    01:00 +7°C° 0.8 mm 4 mps 739 mmHg 95%
    02:00 +8°C° 0.8 mm 5 mps 738 mmHg 94%
    03:00 +8°C° 0.8 mm 5 mps 737 mmHg 94%
    04:00 +8°C° 0.9 mm 6 mps 735 mmHg 93%
    05:00 +8°C° 0.9 mm 6 mps 733 mmHg 93%
    06:00 +8°C° 0.9 mm 6 mps 731 mmHg 93%
    07:00 +7°C° 0.1 mm 6 mps 729 mmHg 91%
    08:00 +7°C° 0.1 mm 5 mps 728 mmHg 90%
    09:00 +6°C° 0.1 mm 5 mps 726 mmHg 88%
    10:00 +6°C° 0.1 mm 4 mps 726 mmHg 87%
    11:00 +7°C° 0.1 mm 3 mps 725 mmHg 86%
    12:00 +7°C° 0.1 mm 3 mps 725 mmHg 85%
    13:00 +4°C° 0.2 mm 6 mps 726 mmHg 86%
    14:00 +2°C° 0.2 mm 9 mps 727 mmHg 86%
    15:00 0°C° 0.2 mm 12 mps 728 mmHg 87%
    16:00 0°C° 0.4 mm 12 mps 730 mmHg 83%
    17:00 -1°C° 0.4 mm 12 mps 731 mmHg 80%
    18:00 -1°C° 0.4 mm 12 mps 733 mmHg 76%
    19:00 -2°C° 0 mm 11 mps 734 mmHg 77%
    20:00 -2°C° 0 mm 10 mps 735 mmHg 78%
    21:00 -3°C° 0 mm 9 mps 736 mmHg 78%
    22:00 -2°C° 0 mm 8 mps 736 mmHg 79%
    23:00 -2°C° 0 mm 8 mps 737 mmHg 80%
    Mostrar más